Flag for U.S.A. Weather past 2 weeks in Cheyenne, Wyoming, U.S.A.

Now
77 °F

Scattered clouds.


Feels Like: 78 °F
Forecast: 54 / 82 °F
Wind: 24 mph from North

Location: Cheyenne Airport

Current Time: Sep 17, 2014 at 3:51:15 PM

Latest Report: Sep 17, 2014 at 3:00 PM


Visibility: 10 mi

Pressure: 30.09 "Hg

Humidity: 28%

Dew point: 41 °F

Location of CheyenneLocation

Historic Weather in Cheyenne — Graph

°F

Cheyenne temperature yesterday

Maximum temperature yesterday: 81 °F (at 2:53 PM)
Minimum temperature yesterday: 49 °F (at 2:53 AM)
Average temperature yesterday: 67 °F

Past Weeks' High & Low Weather Summary

 TemperatureHumidityPressure
High89 °F (Sep 3, 1:53 PM)100% (Sep 6, 6:00 AM)30.53 "Hg (Sep 6, 6:00 AM)
Low29 °F (Sep 11, 9:53 PM)10% (Sep 3, 1:53 PM)29.61 "Hg (Sep 3, 4:53 PM)
Average57 °F59%30.01 "Hg
* Reported Sep 2 1:53 PM — Sep 17 1:53 PM, Cheyenne, Weather by CustomWeather, © 2014

Note: Actual official high and low records may vary slightly from our data, if they occured in-between our weather recording intervals... More about our weather records

Advertising

Cheyenne weather history for previous 24 hours

 ConditionsComfort  
Time TempWeatherWind HumidityBarometerVisibility
1:53 PM
Sep 17
86 °FScattered clouds.9 mph11%29.81 "Hg10 mi
12:53 PM81 °FPassing clouds.3 mph20%29.84 "Hg10 mi
11:53 AM82 °FSunny.8 mph19%29.84 "Hg10 mi
10:53 AM79 °FSunny.7 mph20%29.87 "Hg10 mi
9:53 AM75 °FSunny.5 mph31%29.89 "Hg10 mi
8:53 AM68 °FSunny.No wind35%29.90 "Hg10 mi
7:53 AM57 °FSunny.3 mph49%29.92 "Hg10 mi
6:53 AM51 °FClear.9 mph61%29.90 "Hg10 mi
5:53 AM51 °FClear.10 mph61%29.88 "Hg10 mi
4:53 AM54 °FClear.5 mph51%29.87 "Hg10 mi
3:53 AM55 °FClear.9 mph47%29.87 "Hg10 mi
2:53 AM57 °FClear.12 mph46%29.87 "Hg10 mi
1:53 AM57 °FClear.8 mph47%29.89 "Hg8 mi
12:53 AM60 °FClear.7 mph44%29.89 "Hg8 mi
11:53 PM
Sep 16
64 °FPassing clouds.9 mph35%29.90 "Hg10 mi
10:53 PM63 °FPassing clouds.8 mph37%29.90 "Hg10 mi
9:53 PM58 °FClear.7 mph47%29.93 "Hg10 mi
8:53 PM64 °FClear.No wind35%29.93 "Hg10 mi
7:53 PM69 °FSunny.5 mph27%29.92 "Hg10 mi
6:53 PM76 °FSunny.6 mph18%29.88 "Hg10 mi
5:53 PM80 °FSunny.12 mph15%29.88 "Hg10 mi
4:53 PM80 °FScattered clouds.10 mph15%29.89 "Hg10 mi
3:53 PM81 °FScattered clouds.16 mph15%29.90 "Hg10 mi
Weather by CustomWeather, © 2014

See weather overviewHow to use our weather pages